sat.trackr.live / text

‹ back to catalog

STARLINK-36261

NORAD 67105 · 2025-299D

PAYLOAD ACTIVE UNKNOWN

§ Identity

Operator
Country
US
Launch date
2025-12-15
Launch site
AFETR
Launch vehicle
Mass (kg)
RCS (m²)

Purposes: comms

External: N2YO · Heavens-Above · Gunter

§ Orbital elements

Epoch: 2026-09-20T01:42:07.365312Z

Period
94.27 min
Inclination
43.0050°
Eccentricity
0.0001445
Mean motion
15.27589856 rev/d
Perigee alt
482.0 km
Apogee alt
484.0 km
Semi-major
6,861.2 km
B*
4.2325e-4
RAAN
151.2963°
Arg perigee
284.4850°
Mean anomaly
75.5841°
Rev number
4,284

§ Raw data

STARLINK-362611 67105U 25299D   26263.07091858  .00011406  00000+0  42325-3 0  99932 67105  43.0050 151.2963 0001445 284.4850  75.5841 15.27589856 42849

JSON: /api/v1/satellites/67105 · /tle

For live sub-satellite position, see the globe view (requires WebGL).

§ Visibility from observer

Set your observer location to see the next 7 days of passes ≥ 10°. The values pass through the URL so the page stays shareable.

No JS? Fill the form by hand. The geolocation button needs JavaScript.